Location: Aboncourt
(47.7710°N, 5.9826°E)
Time: 02:21:37
(UTC+00:00)

Cosmos 2237 Rocket - Pass Details

Date: 05 July 2020
Orbit: 834 x 850 km, 71.0° (Epoch: 03 August)

Event Time Altitude Azimuth Distance (km) Brightness Sun altitude
Exits shadow 20:33:12 - 119° (ESE) 2,619 4.1 -7.9°
Reaches altitude 10° 20:34:23 10° 108° (ESE) 2,475 4.1 -8.1°
Maximum altitude 20:35:45 11° 94° (E) 2,415 4.2 -8.2°
Drops below altitude 10° 20:37:07 10° 80° (E) 2,480 4.3 -8.4°
Sets 20:41:45 0° 46° (NE) 3,425 5.4 -8.9°
